Location: Newark
(59.4564°N, 26.6917°E)
Time: 18:52:14
(UTC+00:00)

SR - Pass Details

Date: 26 November 2019
Orbit: 573 x 882 km, 66.7° (Epoch: 06 December)

Event Time Altitude Azimuth Distance (km) Brightness Sun altitude
Rises 11:28:23 0° 199° (SSW) 3,270 ? 7.6°
Reaches altitude 10° 11:30:49 10° 192° (SSW) 2,389 ? 7.5°
Maximum altitude 11:36:01 43° 123° (ESE) 1,177 ? 7.3°
Drops below altitude 10° 11:41:32 10° 54° (NE) 2,533 ? 7.0°
Sets 11:44:11 0° 48° (NE) 3,489 ? 6.8°
